Terminal Aerodrome Forecast
Issued by NWS

Home | Current Version | Previous Version | Text Only | Print | Product List | Glossary On
Versions: 1 2 3 4 5 6 7 8 9 10 11 12 13 14 15 16 17 18 19 20 21 22 23 24 25 26 27 28
771
FTUS42 KGSP 080543
TAFGMU
TAF
KGMU 080543Z 0806/0906 23003KT 5SM BR OVC006
      TEMPO 0807/0811 1SM BR OVC003
     FM081100 29004KT P6SM OVC008
     FM081400 34007KT P6SM SCT035 BKN050
     FM082000 33010G16KT P6SM SCT150
     FM090400 34006KT P6SM SCT150=

USA.gov is the U.S. government's official web portal to all federal, state and local government web resources and services.